CAPE
519 659 778 954 1269 1381 1372 1245 1242 1157 1383 1628 1785 1766 1920 2054 2170 1763 1861 1921 1440 1398 1357 1481 2016 2238 2257 2198 2063 1778 1395 1197 829
235 603 721 754 1100 1336 1313 1393 1234 1334 1452 1656 1707 1666 1762 1827 1956 1950 1825 2033 2140 1468 2137 1486 1925 2290 2386 2372 2083 1796 1374 938 725
0 33 411 667 989 1110 1162 1051 1311 1254 1439 1659 1761 1754 1716 1622 1736 1863 1908 2007 2010 2020 2149 2156 1951 2323 2423 2396 2146 1848 1574 1237 783
0 0 55 190 736 1142 1200 842 1068 1191 1422 1687 1821 1827 1812 1766 1727 1754 1900 1921 2001 2089 2255 2320 2319 2321 2303 2305 2183 1860 1684 1540 1022
0 22 98 101 170 431 660 1135 986 1194 1325 1550 1746 1832 1931 1888 1912 1872 1832 1903 1973 2081 2215 2194 2522 2465 2357 2231 2190 2003 1736 1659 1199
0 0 27 132 92 376 672 948 1087 1018 1125 1161 1282 1793 1866 2006 2031 1928 1910 1941 2036 2141 2196 2253 2047 2418 2577 2267 2091 2076 1825 1814 1641
0 0 60 185 132 653 652 806 1030 1103 1158 1108 1268 1489 1806 2050 2105 2066 2012 2052 2140 2157 2279 2267 2364 2514 2665 2430 2082 2043 1831 1792 1822
0 0 0 1 134 726 991 1021 1132 1063 1137 1405 1441 1713 1769 2090 2239 2292 2302 2222 2225 2262 2374 2269 2396 2489 2587 2460 2049 1777 1922 1827 1838
0 0 0 0 353 424 633 1040 1128 1108 1207 1331 1613 1786 1720 1991 2390 2452 2398 2374 2354 2386 2385 2354 2488 2532 2589 2592 2054 1416 1000 1566 1905
0 0 0 0 196 461 658 652 1105 1047 1203 1204 1619 1861 1931 2051 2299 2461 2474 2435 2483 2427 2474 2417 2484 2466 2545 2610 2617 820 277 383 2062
0 0 0 0 0 15 861 381 319 984 1226 1558 1723 1931 2138 2110 2112 2367 2458 2548 2539 2594 2571 2560 2567 2531 2539 2594 2555 440 72 124 1862
0 0 0 0 0 0 606 738 883 1181 1389 1701 1909 2010 2208 2260 2182 2413 2536 2513 2543 2551 2623 2711 2733 2683 2713 2641 2711 261 17 52 1571
0 0 0 0 0 0 1 496 389 991 1216 1632 2025 2154 2263 2308 2554 2591 2656 2715 2746 2690 2633 2676 2645 2802 2802 2271 2777 222 4 63 1926
0 1 0 0 0 0 29 46 315 1289 1452 1793 2012 1858 2055 2617 2852 2908 2785 2529 2857 3106 2989 2901 2893 2855 2831 2783 2311 2138 1 0 2086
2092 2130 1398 0 0 38 555 680 750 1564 2182 1998 2107 2249 2682 3203 3207 2873 2661 3042 2753 3285 2884 3136 3300 3133 2612 2594 2888 1676 1 0 374
1881 2142 1809 1205 967 1232 1185 1337 1528 1788 1786 1796 2120 2588 3149 3340 3403 3381 3384 3446 3417 2740 2419 2513 2796 2388 2438 2454 2071 2155 196 1 0
654 1218 1309 761 609 785 868 1394 1797 2035 2386 2404 2247 2781 3019 3282 3555 3636 3720 3382 3267 3028 2507 2344 2094 2276 2092 2111 2143 1342 2 0 0
0 22 60 246 376 425 360 464 388 229 355 2150 3073 2368 2333 2714 2910 2988 3598 3652 3461 3060 2779 2748 2752 2975 2303 2378 772 0 0 1 1
91 80 264 242 223 255 226 295 329 267 266 197 1056 1793 2111 2014 2155 2563 3125 3325 1368 0 176 1445 1047 2300 2387 897 1 1 1 0 1
0 58 65 181 552 740 849 753 688 675 629 407 488 724 1230 1692 1320 1966 3041 761 1494 696 0 1 41 14 1 0 0 1 0 0 0
CIN
-172 -222 -229 -207 -188 -203 -235 -230 -231 -234 -221 -196 -158 -152 -121 -98 -79 -80 -72 -70 -52 -43 -33 -40 -38 -45 -40 -48 -52 -52 -68 -67 -96
-160 -178 -213 -255 -245 -208 -259 -262 -280 -268 -275 -265 -235 -221 -185 -151 -122 -99 -93 -76 -83 -68 -39 -31 -39 -41 -43 -47 -60 -59 -78 -84 -134
0 -105 -199 -222 -256 -247 -296 -311 -312 -337 -316 -301 -280 -253 -228 -215 -197 -175 -139 -106 -101 -81 -53 -48 -35 -39 -37 -43 -59 -61 -68 -81 -149
0 0 -257 -239 -263 -274 -319 -388 -343 -381 -367 -328 -300 -292 -270 -246 -224 -195 -160 -124 -121 -111 -82 -66 -40 -41 -39 -41 -54 -69 -67 -70 -125
0 -252 -271 -282 -276 -313 -319 -358 -407 -400 -410 -371 -368 -368 -328 -316 -283 -251 -222 -197 -168 -150 -113 -89 -57 -41 -40 -40 -49 -65 -85 -77 -129
0 0 -367 -290 -311 -312 -357 -353 -412 -447 -465 -418 -420 -377 -367 -313 -301 -289 -275 -247 -210 -167 -143 -109 -94 -50 -29 -42 -58 -76 -111 -90 -104
0 0 -391 -382 -398 -336 -373 -411 -492 -505 -478 -435 -433 -454 -407 -378 -356 -347 -326 -275 -229 -198 -168 -131 -98 -75 -48 -48 -84 -94 -122 -122 -105
0 0 0 -197 -471 -429 -451 -480 -539 -585 -501 -501 -450 -492 -460 -442 -421 -366 -314 -291 -250 -210 -151 -168 -146 -105 -66 -71 -103 -128 -127 -140 -132
0 0 0 -3 -373 -462 -499 -486 -555 -608 -578 -575 -536 -533 -561 -516 -413 -381 -377 -337 -294 -246 -199 -163 -127 -111 -103 -98 -147 -237 -346 -219 -160
0 0 0 0 -343 -390 -426 -497 -533 -567 -648 -661 -606 -589 -562 -523 -461 -422 -402 -359 -294 -284 -234 -207 -177 -164 -139 -130 -146 -445 -665 -589 -143
0 0 0 0 0 -197 -454 -485 -463 -564 -559 -637 -624 -577 -515 -524 -527 -479 -407 -347 -339 -313 -276 -257 -222 -203 -186 -168 -192 -663 -904 -831 -216
0 0 0 0 0 0 -469 -493 -509 -554 -550 -597 -566 -557 -544 -544 -535 -471 -397 -391 -395 -368 -289 -263 -254 -215 -186 -195 -202 -839 -1091 -954 -265
0 0 0 0 0 0 -138 -578 -559 -566 -557 -557 -540 -547 -574 -592 -517 -477 -446 -428 -368 -360 -309 -294 -266 -250 -237 -293 -204 -914 -1204 -856 -179
0 -31 0 0 0 0 -392 -857 -668 -551 -482 -489 -513 -481 -454 -412 -386 -366 -344 -305 -197 -139 -168 -158 -250 -225 -305 -292 -284 -324 -868 0 -196
-316 -365 -507 0 0 -852 -786 -721 -621 -508 -475 -503 -517 -492 -438 -366 -355 -358 -358 -265 -243 -278 -148 -52 -50 -80 -221 -275 -259 -425 0 0 -765
-371 -361 -483 -574 -603 -671 -692 -679 -552 -530 -626 -591 -521 -457 -395 -354 -307 -276 -224 -210 -143 -176 -139 -125 -49 -64 -83 -121 -240 -298 -987 0 0
-555 -503 -518 -628 -673 -692 -730 -665 -603 -558 -514 -495 -481 -408 -386 -340 -286 -262 -224 -218 -170 -142 -144 -257 -311 -129 -163 -172 -229 -298 0 0 0
-127 -357 -859 -724 -712 -697 -782 -783 -821 -909 -896 -515 -346 -445 -434 -381 -337 -325 -220 -210 -199 -217 -263 -221 -286 -194 -280 -214 -598 0 0 0 0
-598 -682 -656 -710 -759 -811 -852 -841 -847 -896 -918 -950 -649 -455 -390 -391 -342 -283 -210 -191 -595 0 -265 -506 -652 -220 -108 -497 0 0 0 0 0
0 -579 -624 -644 -576 -551 -572 -602 -636 -665 -702 -787 -733 -648 -526 -416 -477 -288 -139 -583 -333 -586 0 0 -15 -280 -33 0 0 0 0 0 0
Wind_Speed
19 22 23 25 25 23 22 24 23 22 21 20 20 20 20 18 18 13 13 14 12 11 10 10 11 12 11 11 11 10 8 6 7
18 22 24 27 26 24 23 23 23 23 23 22 22 23 19 19 17 18 15 16 14 12 11 10 12 12 12 12 11 12 10 8 9
19 19 21 23 23 24 22 24 23 24 23 23 22 21 19 17 19 19 18 14 15 15 13 13 12 13 12 12 12 12 12 9 9
20 19 20 21 21 23 24 21 20 22 23 23 22 21 20 20 19 19 18 16 16 16 14 14 14 14 14 13 12 13 13 12 11
12 14 17 18 20 19 20 21 21 23 22 23 24 22 21 21 19 19 20 19 19 17 16 16 15 15 15 15 14 14 15 15 13
12 12 13 14 14 17 19 20 21 21 23 25 24 20 21 20 20 20 21 21 20 18 17 17 18 16 16 16 16 15 15 16 16
10 10 11 11 13 15 17 19 19 20 22 22 21 22 22 22 22 23 21 20 20 20 19 18 17 17 17 16 17 16 16 16 16
8 10 10 12 14 14 15 16 17 19 19 19 20 20 21 24 22 21 20 20 20 19 18 19 19 18 17 17 17 14 17 17 17
16 13 13 12 11 13 15 17 19 18 19 21 21 21 24 21 20 20 22 21 21 20 20 19 18 19 19 19 15 18 19 18 16
16 14 13 13 14 13 14 17 18 20 21 16 20 22 20 19 19 20 21 20 19 21 21 19 20 20 20 20 19 20 22 22 16
19 18 17 13 14 13 15 17 17 17 17 19 19 18 17 16 17 20 19 19 21 21 20 21 20 20 20 19 18 20 23 26 19
20 18 16 13 12 12 11 14 15 15 17 17 17 19 18 19 20 19 19 21 22 20 19 19 20 17 20 21 20 21 24 22 18
17 17 15 13 11 9 10 10 13 15 17 17 18 19 22 20 20 20 22 22 20 18 18 18 16 19 20 22 19 20 23 23 14
6 9 12 10 7 8 6 8 13 16 14 18 19 11 12 14 16 17 15 13 12 14 15 14 17 19 19 21 19 17 24 27 16
4 2 3 5 7 5 3 4 10 11 12 10 10 11 13 15 16 15 14 16 15 16 12 12 13 14 13 13 16 17 20 24 25
6 6 9 8 9 10 6 5 7 9 7 7 9 12 13 14 14 14 14 16 15 11 14 12 9 9 10 9 8 10 21 25 19
7 8 8 9 11 12 9 8 9 7 5 4 7 10 11 12 14 15 16 14 14 15 15 14 15 14 13 12 11 6 4 8 15
7 8 8 8 10 10 10 7 7 5 4 2 4 7 9 12 12 15 14 15 15 16 18 18 20 19 16 15 11 9 11 12 9
7 8 8 9 9 8 6 6 6 6 5 4 5 5 5 7 9 11 13 11 7 6 13 11 6 9 11 7 20 29 29 29 25
6 9 9 9 8 8 7 6 7 6 6 4 3 4 7 6 6 9 7 7 10 9 7 12 13 21 24 25 26 29 28 25 22
Wind_Direction
213 208 210 211 207 204 201 202 203 201 197 202 200 201 203 204 208 210 213 210 214 217 220 218 206 199 206 202 204 198 194 195 198
209 209 210 210 208 205 203 202 200 200 200 201 199 202 202 205 205 211 211 212 207 212 218 219 208 203 201 202 199 194 187 202 197
218 217 212 213 210 209 204 205 198 198 200 201 201 201 202 206 206 207 211 206 208 211 207 212 206 205 203 202 200 194 196 198 197
214 216 214 213 210 209 209 205 202 201 198 197 199 201 201 203 205 207 208 209 210 211 205 201 206 208 208 206 201 197 201 206 200
232 226 219 217 215 210 210 205 202 203 199 198 200 200 201 203 201 202 204 205 207 206 204 201 204 206 206 207 206 198 203 206 206
229 227 227 225 215 211 209 207 205 202 200 204 202 199 200 202 203 201 204 205 205 204 202 202 202 204 206 207 208 202 205 210 212
256 239 212 211 218 214 211 208 203 203 206 204 201 198 199 201 203 204 203 204 206 203 200 200 201 202 205 205 208 208 206 208 215
285 258 234 215 216 214 212 207 204 206 204 199 199 198 200 206 204 203 201 203 205 205 203 202 200 197 202 203 208 209 208 207 211
269 262 251 244 225 213 211 206 203 201 202 200 193 195 204 203 200 200 202 201 200 200 203 205 202 201 200 201 206 197 192 197 206
250 248 240 237 227 218 217 212 204 202 203 193 197 200 204 200 199 202 204 201 199 202 201 200 203 204 201 205 208 187 186 195 204
249 248 250 236 237 232 217 220 214 211 194 195 199 205 204 202 200 205 200 200 204 203 200 201 201 203 204 207 211 185 185 194 211
242 249 252 245 249 241 233 212 209 197 194 192 194 203 202 199 201 202 201 203 205 206 202 200 203 202 203 208 212 181 186 187 210
240 239 242 240 231 221 221 216 204 193 200 192 201 203 206 200 200 202 202 204 208 206 208 207 201 201 204 209 214 181 184 188 213
248 267 243 233 217 218 220 201 194 199 199 203 212 211 213 208 207 211 210 202 205 214 217 232 207 211 200 204 202 198 186 191 204
140 206 135 165 154 128 105 173 195 196 196 196 196 196 198 200 199 201 199 197 203 184 199 221 241 245 229 212 200 202 190 190 204
141 136 102 112 128 113 90 85 155 149 149 166 176 190 197 201 201 201 201 196 196 186 186 190 219 228 238 242 235 202 173 178 181
128 113 107 111 105 96 86 76 88 106 136 179 188 197 198 197 199 199 200 198 192 192 191 202 187 205 204 209 195 218 177 183 167
122 104 99 92 87 85 79 68 66 52 30 338 206 218 218 214 213 205 203 204 199 199 208 209 186 200 191 192 170 149 129 134 122
120 112 103 90 89 89 85 77 68 45 22 350 316 278 237 233 228 217 215 204 212 14 327 195 164 174 199 163 134 135 132 139 129
100 91 91 91 83 76 76 75 61 38 20 3 350 334 312 285 259 248 216 195 206 197 34 32 152 152 146 141 147 139 152 160 154